Location: Deep River
(46.0977°N, 77.4933°W)
Time: 04:25:54
(UTC-04:00)

Envisat - Visible Passes

Search period start: 22 March 2019 00:00
Search period end: 01 April 2019 00:00
Orbit: 764 x 766 km, 98.2° (Epoch: 22 March)

Date Brightness Start Highest point End Pass type
(mag) Time Alt. Az. Time Alt. Az. Time Alt. Az.
22 Mar 6.1 21:23:29 10° WSW 21:25:20 12° W 21:27:11 10° WNW visible
23 Mar 5.3 20:43:58 10° SSW 20:48:08 25° W 20:52:20 10° NW visible
24 Mar 3.9 20:06:13 10° S 20:11:10 53° W 20:16:09 10° NNW visible
25 Mar 5.9 21:11:05 10° WSW 21:13:57 15° W 21:16:52 10° NW visible
26 Mar 5.0 20:32:21 10° SSW 20:36:50 31° W 20:41:21 10° NNW visible
27 Mar 3.5 19:54:52 10° S 19:59:55 66° WSW 20:04:59 10° NNW visible
28 Mar 5.8 20:59:04 10° SW 21:02:37 19° W 21:06:10 10° NW visible
29 Mar 4.6 20:20:49 10° SSW 20:25:32 39° W 20:30:19 10° NNW visible
30 Mar 6.2 21:27:22 10° W 21:28:30 11° W 21:29:39 10° WNW visible
31 Mar 5.5 20:47:16 10° SW 20:51:16 23° W 20:55:19 10° NW visible
